Wise, VA

9:57 AM EDT on July 27, 2017 (GMT -0400)
Lonesome Pine

Weather History for KLNP - December, 2013

Change the Weather History Date:

Thursday, December 19, 2013

  Actual Average Record
Temperature  
Mean Temperature 42 °F -  
Max Temperature 53 °F 40 °F 60 °F (2002)
Min Temperature 32 °F 23 °F 6 °F (2004)
Degree Days  
Heating Degree Days 22    
Moisture  
Dew Point 22 °F    
Average Humidity 44    
Maximum Humidity 60    
Minimum Humidity 30    
Precipitation  
Precipitation 0.00 in - - ()
Sea Level Pressure  
Sea Level Pressure 30.19 in    
Wind  
Wind Speed 12 mph (SW)    
Max Wind Speed 23 mph    
Max Gust Speed 30 mph    
Visibility 10 miles    
Events      
Averages and records for this station are not official NWS values.
T = Trace of Precipitation, MM = Missing Value Source: NWS Daily Summary

Daily Weather History Graph

Daily Weather History Graph

Search for Another Location

Airport or City:

Trip Planner

Search our weather history database for the weather conditions in past years. The results will help you decide how hot, cold, wet, or windy it might be!

Date:

Astronomy

Dec. 19, 2013 Rise Set
Actual Time 7:38 AM EST 5:16 PM EST
Civil Twilight 7:09 AM EST 5:45 PM EST
Nautical Twilight 6:37 AM EST 6:17 PM EST
Astronomical Twilight 6:05 AM EST 6:49 PM EST
Moon 7:37 PM EST (12/19) 8:59 AM EST (12/19)
Length of Visible Light 10h 35m
Length of Day
9h 37m
Waning Gibbous, 95% of the Moon is Illuminated
Dec 19
Waning Gibbous
Dec 25
Last Quarter
Jan 1
New
Jan 7
First Quarter
Jan 15
Full

Hourly Weather History & Observations

Time (EST) Temp. Windchill Dew Point Humidity Pressure Visibility Wind Dir Wind Speed Gust Speed Precip Events Conditions
12:15 AM 32.0 °F 23.6 °F 19.4 °F 60% 30.20 in 10.0 mi SSW 10.4 mph - N/A   Clear
12:35 AM 32.0 °F 24.2 °F 19.4 °F 60% 30.20 in 10.0 mi SW 9.2 mph - N/A   Clear
12:55 AM 32.0 °F 24.2 °F 19.4 °F 60% 30.19 in 10.0 mi SSW 9.2 mph - N/A   Clear
1:15 AM 32.0 °F 24.2 °F 19.4 °F 60% 30.19 in 10.0 mi SSW 9.2 mph - N/A   Clear
1:35 AM 32.0 °F 24.8 °F 19.4 °F 60% 30.18 in 10.0 mi SSW 8.1 mph - N/A   Clear
1:55 AM 32.0 °F 24.2 °F 19.4 °F 60% 30.18 in 10.0 mi SSW 9.2 mph - N/A   Clear
2:15 AM 32.0 °F 24.2 °F 19.4 °F 60% 30.18 in 10.0 mi SSW 9.2 mph - N/A   Clear
2:35 AM 32.0 °F 24.2 °F 19.4 °F 60% 30.19 in 10.0 mi SSW 9.2 mph - N/A   Clear
2:55 AM 32.0 °F 23.6 °F 19.4 °F 60% 30.19 in 10.0 mi SW 10.4 mph - N/A   Clear
3:15 AM 33.8 °F 25.8 °F 19.4 °F 56% 30.20 in 10.0 mi SW 10.4 mph - N/A   Clear
3:35 AM 33.8 °F 26.4 °F 19.4 °F 56% 30.20 in 10.0 mi SW 9.2 mph - N/A   Clear
3:55 AM 32.0 °F 24.8 °F 19.4 °F 60% 30.20 in 10.0 mi SSW 8.1 mph - N/A   Clear
4:15 AM 33.8 °F 26.4 °F 19.4 °F 56% 30.19 in 10.0 mi SSW 9.2 mph - N/A   Clear
4:35 AM 33.8 °F 25.3 °F 19.4 °F 56% 30.19 in 10.0 mi SSW 11.5 mph - N/A   Clear
4:55 AM 35.6 °F 27.1 °F 19.4 °F 52% 30.19 in 10.0 mi SW 12.7 mph - N/A   Clear
5:15 AM 37.4 °F 28.9 °F 19.4 °F 48% 30.19 in 10.0 mi SW 13.8 mph - N/A   Clear
5:35 AM 37.4 °F 28.5 °F 19.4 °F 48% 30.19 in 10.0 mi SW 15.0 mph 20.7 mph N/A   Clear
5:55 AM 39.2 °F 30.8 °F 19.4 °F 45% 30.19 in 10.0 mi SW 15.0 mph - N/A   Clear
6:15 AM 41.0 °F 33.1 °F 19.4 °F 42% 30.20 in 10.0 mi SW 15.0 mph 20.7 mph N/A   Clear
6:35 AM 41.0 °F 32.5 °F 19.4 °F 42% 30.20 in 10.0 mi SW 17.3 mph 21.9 mph N/A   Clear
6:55 AM 41.0 °F 32.5 °F 19.4 °F 42% 30.21 in 10.0 mi SW 17.3 mph 21.9 mph N/A   Clear
7:15 AM 41.0 °F 31.9 °F 19.4 °F 42% 30.21 in 10.0 mi WSW 19.6 mph 24.2 mph N/A   Clear
7:35 AM 41.0 °F 31.4 °F 19.4 °F 42% 30.21 in 10.0 mi WSW 21.9 mph 26.5 mph N/A   Clear
7:55 AM 41.0 °F 31.9 °F 19.4 °F 42% 30.21 in 10.0 mi WSW 19.6 mph 26.5 mph N/A   Clear
8:15 AM 41.0 °F 32.8 °F 19.4 °F 42% 30.22 in 10.0 mi SW 16.1 mph - N/A   Clear
8:35 AM 42.8 °F 35.4 °F 19.4 °F 39% 30.22 in 10.0 mi WSW 15.0 mph 23.0 mph N/A   Clear
8:55 AM 44.6 °F 36.6 °F 19.4 °F 37% 30.22 in 10.0 mi WSW 19.6 mph 24.2 mph N/A   Clear
9:15 AM 44.6 °F 36.1 °F 19.4 °F 37% 30.23 in 10.0 mi SW 21.9 mph 27.6 mph N/A   Clear
9:35 AM 46.4 °F 39.0 °F 19.4 °F 34% 30.23 in 10.0 mi WSW 19.6 mph 29.9 mph N/A   Clear
9:55 AM 46.4 °F 39.2 °F 21.2 °F 37% 30.24 in 10.0 mi WSW 18.4 mph - N/A   Clear
10:15 AM 46.4 °F 39.0 °F 21.2 °F 37% 30.24 in 10.0 mi WSW 19.6 mph - N/A   Clear
10:35 AM 46.4 °F 39.5 °F 21.2 °F 37% 30.24 in 10.0 mi SW 17.3 mph 25.3 mph N/A   Clear
10:55 AM 50.0 °F - 23.0 °F 35% 30.24 in 10.0 mi SW 18.4 mph 24.2 mph N/A   Clear
11:15 AM 50.0 °F - 23.0 °F 35% 30.24 in 10.0 mi WSW 17.3 mph - N/A   Clear
11:35 AM 51.8 °F - 23.0 °F 33% 30.23 in 10.0 mi SW 20.7 mph 28.8 mph N/A   Clear
11:55 AM 51.8 °F - 23.0 °F 33% 30.23 in 10.0 mi SW 18.4 mph 25.3 mph N/A   Clear
12:15 PM 50.0 °F - 21.2 °F 32% 30.22 in 10.0 mi WSW 21.9 mph 27.6 mph N/A   Clear
12:35 PM 50.0 °F - 21.2 °F 32% 30.22 in 10.0 mi WSW 20.7 mph 27.6 mph N/A   Clear
12:55 PM 51.8 °F - 23.0 °F 33% 30.21 in 10.0 mi WSW 17.3 mph 27.6 mph N/A   Clear
1:15 PM 51.8 °F - 21.2 °F 30% 30.20 in 10.0 mi SW 23.0 mph 28.8 mph N/A   Clear
1:35 PM 51.8 °F - 23.0 °F 33% 30.20 in 10.0 mi SW 16.1 mph - N/A   Clear
1:55 PM 53.6 °F - 23.0 °F 30% 30.19 in 10.0 mi SW 20.7 mph 26.5 mph N/A   Clear
2:15 PM 51.8 °F - 23.0 °F 33% 30.18 in 10.0 mi SW 18.4 mph 24.2 mph N/A   Clear
2:35 PM 51.8 °F - 23.0 °F 33% 30.18 in 10.0 mi WSW 18.4 mph 25.3 mph N/A   Clear
2:55 PM 51.8 °F - 23.0 °F 33% 30.18 in 10.0 mi WSW 15.0 mph 21.9 mph N/A   Clear
3:15 PM 50.0 °F - 23.0 °F 35% 30.18 in 10.0 mi WSW 15.0 mph - N/A   Clear
3:35 PM 50.0 °F - 24.8 °F 37% 30.18 in 10.0 mi SW 11.5 mph - N/A   Clear
3:55 PM 50.0 °F - 23.0 °F 35% 30.18 in 10.0 mi WSW 11.5 mph - N/A   Clear
4:15 PM 48.2 °F - 24.8 °F 40% 30.18 in 10.0 mi WSW 8.1 mph - N/A   Clear
4:35 PM 48.2 °F - 23.0 °F 37% 30.19 in 10.0 mi West 6.9 mph - N/A   Clear
4:55 PM 46.4 °F 42.9 °F 23.0 °F 40% 30.18 in 10.0 mi SW 6.9 mph - N/A   Clear
5:15 PM 46.4 °F 41.9 °F 23.0 °F 40% 30.17 in 10.0 mi SSW 9.2 mph - N/A   Clear
5:35 PM 44.6 °F 41.4 °F 23.0 °F 43% 30.17 in 10.0 mi SSW 5.8 mph - N/A   Clear
5:55 PM 44.6 °F 39.7 °F 23.0 °F 43% 30.17 in 10.0 mi SW 9.2 mph - N/A   Clear
6:15 PM 44.6 °F 41.4 °F 23.0 °F 43% 30.16 in 10.0 mi SW 5.8 mph - N/A   Clear
6:35 PM 44.6 °F 41.4 °F 23.0 °F 43% 30.16 in 10.0 mi SSW 5.8 mph - N/A   Clear
6:55 PM 42.8 °F 39.3 °F 23.0 °F 46% 30.16 in 10.0 mi South 5.8 mph - N/A   Clear
7:15 PM 44.6 °F 41.4 °F 23.0 °F 43% 30.16 in 10.0 mi SSW 5.8 mph - N/A   Clear
7:35 PM 44.6 °F 41.4 °F 26.6 °F 49% 30.15 in 10.0 mi SSW 5.8 mph - N/A   Clear
7:55 PM 44.6 °F 41.4 °F 26.6 °F 49% 30.15 in 10.0 mi SW 5.8 mph - N/A   Clear
8:15 PM 44.6 °F 42.2 °F 26.6 °F 49% 30.14 in 10.0 mi SW 4.6 mph - N/A   Clear
8:35 PM 42.8 °F 39.3 °F 26.6 °F 53% 30.14 in 10.0 mi SW 5.8 mph - N/A   Clear
8:55 PM 44.6 °F 40.2 °F 24.8 °F 46% 30.15 in 10.0 mi WSW 8.1 mph - N/A   Clear
9:15 PM 42.8 °F 38.0 °F 24.8 °F 49% 30.15 in 10.0 mi SW 8.1 mph - N/A   Clear
9:35 PM 44.6 °F 40.7 °F 26.6 °F 49% 30.14 in 10.0 mi WSW 6.9 mph - N/A   Clear
9:55 PM 42.8 °F 38.6 °F 24.8 °F 49% 30.13 in 10.0 mi SW 6.9 mph - N/A   Clear
10:15 PM 44.6 °F 40.2 °F 24.8 °F 46% 30.14 in 10.0 mi SW 8.1 mph - N/A   Clear
10:35 PM 44.6 °F 38.8 °F 24.8 °F 46% 30.14 in 10.0 mi SW 11.5 mph - N/A   Clear
10:55 PM 44.6 °F 39.7 °F 24.8 °F 46% 30.12 in 10.0 mi SSW 9.2 mph - N/A   Clear
11:15 PM 44.6 °F 40.7 °F 24.8 °F 46% 30.12 in 10.0 mi South 6.9 mph - N/A   Clear
11:35 PM 44.6 °F 39.7 °F 24.8 °F 46% 30.12 in 10.0 mi SSW 9.2 mph - N/A   Clear
11:55 PM 44.6 °F 38.8 °F 24.8 °F 46% 30.12 in 10.0 mi SW 11.5 mph - N/A   Clear